Regional Weather Roundup
Issued by NWS

Home | Current Version | Previous Version | Text Only | Print | Product List | Glossary Off
Versions: 1 2 3 4 5 6 7 8 9 10 11 12 13 14 15 16 17 18 19 20 21 22 23 24 25 26 27 28 29 30 31 32 33 34 35 36 37 38 39 40 41 42 43 44 45 46 47 48 49 50

000
ASUS43 KOAX 170810
RWRNE

WEATHER ROUNDUP FOR NEBRASKA
NATIONAL WEATHER SERVICE OMAHA NE
300 AM CDT WED SEP 17 2014

NOTES: SATELLITE DATA IS BEING USED TO AUGMENT CLOUD COVER ABOVE
       12000 FEET.
       "FAIR" INDICATES FEW OR NO CLOUDS BELOW 12,000 FEET WITH NO
       SIGNIFICANT WEATHER AND/OR OBSTRUCTIONS TO VISIBILITY.

  * THESE STATIONS DO NOT REPORT WEATHER SUCH AS RAIN...SNOW OR FOG.

NEZ001>004-019>022-054>056-170900-
NEBRASKA PANHANDLE

CITY           SKY/WX    TMP DP  RH WIND       PRES   REMARKS
SCOTTSBLUFF    PTCLDY    58  47  66 NE3       30.00F
ALLIANCE       PTCLDY    46  43  89 S6        30.00S
CHADRON        MOCLDY    54  50  86 SW6       29.96F
KIMBALL        PTCLDY    55  41  59 SW10      30.06F
SIDNEY         CLEAR     52  46  80 W10       30.05R
$$

NEZ057>060-069>072-079>082-170900-
SOUTHWEST NEBRASKA

CITY           SKY/WX    TMP DP  RH WIND       PRES   REMARKS
NORTH PLATTE   FOG       48  48 100 CALM      29.97F VSB 3/4
IMPERIAL       MOCLDY    51  49  92 CALM      29.99S
LEXINGTON      CLEAR     49  48  97 N5        29.95F FOG
MCCOOK         CLEAR     53  51  93 NW6       29.96S FOG
OGALLALA       CLEAR     54  53  95 CALM      29.99S
$$

NEZ005>010-023>029-035>040-094-170900-
NORTH CENTRAL NEBRASKA

CITY           SKY/WX    TMP DP  RH WIND       PRES   REMARKS
VALENTINE      CLEAR     49  48  97 NW3       29.94F
BROKEN BOW     PTCLDY    46  44  93 CALM      29.96S FOG
O`NEILL        CLEAR     53  53 100 S7        29.95S
ORD            FOG       46  46 100 CALM      29.94F VSB 1/4
THEDFORD       CLEAR     54  53  97 CALM      29.98S
$$

NEZ041-046>049-061>064-073>077-083>087-170900-
SOUTH CENTRAL NEBRASKA

CITY           SKY/WX    TMP DP  RH WIND       PRES   REMARKS
GRAND ISLAND   CLEAR     55  50  83 CALM      29.95R
HASTINGS       CLEAR     58  49  72 S7        29.93S
HEBRON         CLEAR     55  51  89 SE5       29.92F
HOLDREGE       CLEAR     50  49  93 CALM      29.94S
KEARNEY *      CLEAR     50  46  87 CALM      29.94S
YORK           CLEAR     55  50  82 CALM      29.94R
$$

NEZ011>018-030>034-042>045-170900-
NORTHEAST NEBRASKA

CITY           SKY/WX    TMP DP  RH WIND       PRES   REMARKS
NORFOLK        CLEAR     51  49  92 CALM      29.96R
ALBION         CLEAR     49  46  91 CALM      29.96S
BLAIR          CLOUDY    62  53  72 SE7       29.96F
COLUMBUS *     CLEAR     50  46  87 CALM      29.97R
FREMONT        CLOUDY    62  53  71 SE5       29.96F
TEKAMAH        CLOUDY    59  54  83 SE3       29.96F
WAYNE          CLOUDY    53  51  94 CALM      29.97S
$$

NEZ050>053-065>068-078-088>093-170900-
SOUTHEAST NEBRASKA

CITY           SKY/WX    TMP DP  RH WIND       PRES   REMARKS
LINCOLN        CLEAR     60  53  77 SE7       29.94F
OMAHA EPPLEY   CLOUDY    62  53  72 SE6       29.97F
BEATRICE       PTCLDY    62  55  78 SE6       29.95S
FALLS CITY     CLOUDY    62  56  80 E3        29.96F
NEBRASKA CITY  CLOUDY    61  51  69 S3        29.96F
PLATTSMOUTH    CLOUDY    61  52  72 SE7       29.96F
$$

NEZ044-045-051>053-067-170900-
OMAHA AREA

CITY           SKY/WX    TMP DP  RH WIND       PRES   REMARKS
OMAHA EPPLEY   CLOUDY    62  53  72 SE6       29.97F
BLAIR          CLOUDY    62  53  72 SE7       29.96F
FREMONT        CLOUDY    62  53  71 SE5       29.96F
MILLARD        CLOUDY    61  55  78 SE3       29.96S
OFFUTT AFB     CLOUDY    60  60  99 E6        29.96F
PLATTSMOUTH    CLOUDY    61  52  72 SE7       29.96F
WAHOO          CLOUDY    59  54  82 E3        29.95F
$$



USA.gov is the U.S. government's official web portal to all federal, state and local government web resources and services.